Zurück zum Katalog

THORAD AGENA D DEB

AktivPO
NORAD 4818·DEBRIS·🇺🇸 United States

Gestartet Apr 8, 1970 von Vandenberg Space Force Base

Loading…

Nächste Überflüge (nächste 24 Stunden)

TLE

AktuellSource: Space-Track

Epoche: Sep 14, 2026, 06:12 UTC

1 04818U 70025DZ  26257.25889988  .00000303  00000-0  82071-3 0  9991
2 04818  99.8867 162.4393 0271434 351.5939 159.8892 13.10407291691482

Verfolge THORAD AGENA D DEB in Echtzeit mit AllMySat

Download on the App Store